Location: *
(46.3500°N, 10.9000°E)
Time: 00:06:13
(UTC+00:00)

Vanguard 2 - Pass Details

Date: 25 April 2021
Orbit: 552 x 2938 km, 32.9° (Epoch: 12 May)

Event Time Altitude Azimuth Distance (km) Brightness Sun altitude
Rises 11:32:42 0° 247° (WSW) 6,788 12.6 56.8°
Reaches altitude 10° 11:37:35 10° 243° (WSW) 5,723 12.4 56.6°
Maximum altitude 11:53:18 46° 178° (S) 3,023 12.5 56.0°
Drops below altitude 10° 12:04:29 10° 110° (ESE) 4,153 11.4 55.4°
Sets 12:07:25 0° 104° (ESE) 4,854 11.6 55.2°
